Weather History for New Bedford, MA

Change the Weather History Date:

Monday, October 8, 2012

  Actual Average Record
Temperature  
Mean Temperature 49 °F -  
Max Temperature 59 °F 65 °F 78 °F (1990)
Min Temperature 41 °F 48 °F 28 °F (1999)
Degree Days  
Heating Degree Days 16    
Moisture  
Dew Point 44 °F    
Average Humidity 80    
Maximum Humidity 96    
Minimum Humidity 57    
Precipitation  
Precipitation 0.05 in - - ()
Sea Level Pressure  
Sea Level Pressure 30.20 in    
Wind  
Wind Speed 3 mph (NNW)    
Max Wind Speed 6 mph    
Max Gust Speed -    
Visibility 10 miles    
Events Rain    
Averages and records for this station are not official NWS values.
T = Trace of Precipitation, MM = Missing Value Source: NWS Daily Summary

Daily Weather History Graph

Daily Weather History Graph

Search for Another Location

Airport:

Trip Planner

Search our weather history database for the weather conditions in past years. The results will help you decide how hot, cold, wet, or windy it might be!

Date:

Astronomy

Oct. 08, 2012 Rise Set
Actual Time 6:48 AM EDT 6:13 PM EDT
Civil Twilight 6:20 AM EDT 6:40 PM EDT
Nautical Twilight 5:48 AM EDT 7:12 PM EDT
Astronomical Twilight 5:16 AM EDT 7:45 PM EDT
Moon No Moon Rise 2:05 PM EDT (10/8)
Length of Visible Light 12h 19m
Length of Day
11h 24m
Waning Gibbous, 46% of the Moon is Illuminated
Oct 8
Waning Gibbous
Oct 15
New
Oct 21
First Quarter
Oct 29
Full
Nov 6
Last Quarter

Hourly Weather History & Observations

Time (EDT) Temp. Dew Point Humidity Pressure Visibility Wind Dir Wind Speed Gust Speed Precip Events Conditions
12:05 AM 48.2 °F 46.4 °F 93% 30.06 in 10.0 mi Variable 5.8 mph - N/A   Overcast
12:53 AM 48.0 °F 45.0 °F 89% 30.07 in 5.0 mi NNW 3.5 mph - 0.04 in Rain Light Rain
1:53 AM 46.9 °F 45.0 °F 93% 30.08 in 10.0 mi WNW 3.5 mph - 0.01 in   Overcast
2:53 AM 46.9 °F 44.1 °F 90% 30.06 in 10.0 mi Variable 3.5 mph - N/A   Mostly Cloudy
3:53 AM 45.0 °F 42.1 °F 90% 30.09 in 10.0 mi Calm Calm - N/A   Clear
4:53 AM 43.0 °F 41.0 °F 93% 30.11 in 10.0 mi Calm Calm - N/A   Clear
5:53 AM 42.1 °F 39.9 °F 92% 30.13 in 10.0 mi Calm Calm - N/A   Clear
6:53 AM 41.0 °F 39.9 °F 96% 30.14 in 10.0 mi Calm Calm - N/A   Clear
7:53 AM 46.0 °F 43.0 °F 89% 30.17 in 10.0 mi Calm Calm - N/A   Clear
8:53 AM 48.9 °F 44.1 °F 83% 30.20 in 10.0 mi North 4.6 mph - N/A   Clear
9:53 AM 53.1 °F 44.1 °F 71% 30.22 in 10.0 mi North 5.8 mph - N/A   Clear
10:53 AM 54.0 °F 43.0 °F 66% 30.23 in 10.0 mi WNW 3.5 mph - N/A   Scattered Clouds
11:53 AM 55.0 °F 41.0 °F 59% 30.24 in 10.0 mi Calm Calm - N/A   Scattered Clouds
12:53 PM 57.0 °F 42.1 °F 57% 30.23 in 10.0 mi West 3.5 mph - N/A   Scattered Clouds
1:53 PM 57.0 °F 42.1 °F 57% 30.25 in 10.0 mi Variable 3.5 mph - N/A   Mostly Cloudy
2:53 PM 55.0 °F 43.0 °F 64% 30.25 in 10.0 mi South 4.6 mph - N/A   Mostly Cloudy
3:53 PM 54.0 °F 44.1 °F 69% 30.25 in 10.0 mi SSE 4.6 mph - N/A   Partly Cloudy
4:53 PM 54.0 °F 44.1 °F 69% 30.25 in 10.0 mi SSW 3.5 mph - N/A   Scattered Clouds
5:53 PM 53.1 °F 46.0 °F 77% 30.26 in 10.0 mi Calm Calm - N/A   Partly Cloudy
6:53 PM 52.0 °F 46.0 °F 80% 30.29 in 10.0 mi Calm Calm - N/A   Mostly Cloudy
7:53 PM 51.8 °F 46.4 °F 82% 30.29 in 10.0 mi Calm Calm - N/A   Mostly Cloudy
8:53 PM 50.0 °F 48.2 °F 94% 30.30 in 10.0 mi Calm Calm - N/A   Overcast
9:53 PM 50.0 °F 46.0 °F 86% 30.29 in 10.0 mi NNE 3.5 mph - N/A   Partly Cloudy
10:53 PM 50.0 °F 46.0 °F 86% 30.28 in 10.0 mi NE 3.5 mph - N/A   Clear
11:53 PM 50.0 °F 46.0 °F 86% 30.27 in 10.0 mi NE 5.8 mph - N/A   Clear